COSMOS 249 DEB, 15535

Orbit data source: Space-Track

COSMOS 249 DEB, 15535 is space debris in LEO originally from a launch on Sun, 20 Oct 1968 UTC launched from the Tyuratam Missile And Space Complex (TTMTR). Debris objects in space refer to the collection of defunct objects orbiting the Earth. Examples of debris include non-operational satellites, rocket bodies, and fragments generated from explosions, collisions, or faulty payload assembly.

Loading next visibility...
Identifier
15535, 1968-091CY
Orbit
LEO
Country
Flag of CISCIS
Related business
Manufacturer
Unknown
Mission
Spacecraft
Bus & Motor
Unknown
Mass
Unknown
Launch date (UTC)
1968-10-20 (58 years ago)
Launch vehicle
Unknown
Launch site
Tyuratam Missile And Space Complex (TTMTR)
Object type
Payload
Rocket body
Debris
Shape & HBR
Unknown shape, 0.1 m
Radar Cross Section
Small (<0.1 m²)

Expand to show TLE details & history
Last TLE update: 23 hours ago

TLE from 23 hours ago
0 COSMOS 249 DEB
1 15535U 68091CY  26125.58354441  .00004922  00000-0  59805-3 0  9990
2 15535  62.3965  79.8544 0325927 190.4164 169.0047 14.53573381950632
Epoch: 2026-05-05T14:00Z
TLE epoch observation values (Epoch: 2026-05-05T14:00:18.237Z)
Latitude
-0.00001°
Longitude
6.3221°
Altitude
942.958 km
Speed
7.262 km/s
True Right ascension
05h 19m 25s
True Declination
0° 00' 00"
Sunlit
Object was in daylight at epoch
Visualization orbit readout
Latitude
Unknown
Longitude
Unknown
Altitude
Unknown
Speed
Unknown
Apparent Right ascension
Unknown
Apparent Declination
Unknown
Sunlit
N/A
Visualization observer readout
Local Sidereal Time
21:21:51
Azimuth
Unknown
Elevation
Unknown
Doppler factor
Unknown
Orbital elements
Apogee altitude
944.015 km
Perigee altitude
481.783 km
Semi-major axis
7,091.036 km
Eccentricity
0.03259
Inclination
62.3965°
RAAN
79.8544°
Arg. of periapsis
190.4164°
True anomaly
169.68959°
Mean anomaly
169.0047°
Eccentric anomaly
169.34982°
Mean motion
3.63478 °/min
Orbital period
99.04 mins
BSTAR
0.00059805
Loading maneuver chart data...
Computing Atmospheric mass density...

Documentation

Showing up to 5 results
|